{"data":{"norad_id":69909,"epoch":"2026-09-19T22:43:00.052896Z","epoch_age_seconds":65573,"freshness":"FRESH","line1":"1 69909U 26156AS  26262.94652839  .00000813  00000+0  86709-4 0  9992","line2":"2 69909  97.7452 162.1144 0003968 251.0238 109.0550 14.91509884 11129","mean_motion":14.91509884,"eccentricity":0.0003968,"inclination_deg":97.7452,"raan_deg":162.1144,"arg_perigee_deg":251.0238,"mean_anomaly_deg":109.055,"bstar":8.6709e-5,"rev_number":1112,"period_min":96.546460432306,"perigee_km":590.46062548441,"apogee_km":595.99309984582,"semimajor_km":6971.3638626651,"source":"CELESTRAK","updated_at":"2026-09-20T09:00:25.174072Z"}}